Main page
METAR-TAF:

METAR-TAF

Airports :

Sault Ste. Marie Municipal Airport

Sault Ste. Marie, Michigan, United States

latitude: 46-28-46N, longitude: 084-21-26W, elevation: 210 m

Current weather observation

The report was made 42 minutes ago, at 18:55 UTC
Wind 5 kt from the West
Temperature 24°C
Humidity 61%
Pressure 1027 hPa
Visibility: 16.1 km
Clear sky

METAR: KANJ 201855Z AUTO 27005KT 10SM CLR 24/16 A3034 RMK AO2 SLP270 T02390156

Time: 15:37 (19:37 UTC)


TAF: missing

Weather observations and forecasts of more than 4000 airports (METAR and TAF reports).

The available stations are represented by yellow and red dots on the map.

Hover mouse over dot to see the name of the station.

Then click to see weather observations and forecasts.

To change the map : click on the green buttons with a black cross to zoom in, on the green button with a dash to zoom out, or on the green arrows for adjacent maps.


METAR-TAF: